Flag for France Weather past 2 weeks in Besançon, France

Now
70 °F

Sunny.


Feels Like: 70 °F
Forecast: 56 / 90 °F
Wind: 8 mph from East

Location: Dole Tavaux

Current Time: Aug 2, 2015 at 10:49:43 PM

Latest Report: Aug 2, 2015 at 10:30 PM


Visibility: 10 mi

Pressure: 29.98 "Hg

Humidity: 69%

Dew point: 59 °F

Location of BesançonLocation

Historic Weather in Besançon — Graph

°F

Besançon temperature yesterday

Maximum temperature yesterday: 66 °F (at 12:30 PM)
Minimum temperature yesterday: 57 °F (at 1:00 AM)
Average temperature yesterday: 63 °F

Past Weeks' High & Low Weather Summary

 TemperatureHumidityPressure
High93 °F (Jul 21, 4:30 PM)100% (Jul 22, 11:00 PM)30.09 "Hg (Jul 22, 11:00 PM)
Low50 °F (Jul 30, 5:00 AM)29% (Jul 30, 4:30 PM)29.71 "Hg (Jul 24, 5:30 PM)
Average69 °F66%29.96 "Hg
* Reported Jul 18 9:00 PM — Aug 2 9:30 PM, Besançon, Weather by CustomWeather, © 2015

Note: Actual official high and low records may vary slightly from our data, if they occured in-between our weather recording intervals... More about our weather records

Advertising

Besançon weather history for previous 24 hours

 ConditionsComfort  
Time TempWeatherWind HumidityBarometerVisibility
9:30 PM
Sun, Aug 2
77 °FSunny.1 mph54%29.98 "Hg10 mi
9:00 PM79 °FSunny.5 mph48%29.98 "Hg10 mi
8:30 PM82 °FSunny.7 mph42%29.98 "Hg10 mi
8:00 PM84 °FPassing clouds.7 mph40%29.98 "HgN/A
7:30 PM86 °FPassing clouds.6 mph38%29.98 "HgN/A
7:00 PM86 °FPassing clouds.6 mph38%29.98 "HgN/A
6:30 PM86 °FPassing clouds.8 mph38%29.98 "HgN/A
6:00 PM86 °FPassing clouds.7 mph35%29.98 "HgN/A
5:30 PM86 °FPassing clouds.7 mph38%29.98 "HgN/A
5:00 PM86 °FPassing clouds.8 mph35%29.98 "HgN/A
4:30 PM86 °FPassing clouds.8 mph33%30.01 "HgN/A
4:00 PM84 °FPassing clouds.12 mph35%30.01 "HgN/A
3:30 PM84 °FPassing clouds.13 mph35%30.04 "HgN/A
3:00 PM84 °FPassing clouds.10 mph33%30.04 "HgN/A
2:30 PM84 °FPassing clouds.13 mph33%30.04 "HgN/A
2:00 PM82 °FPassing clouds.13 mph37%30.04 "HgN/A
1:30 PM81 °FPassing clouds.12 mph37%30.04 "HgN/A
1:00 PM81 °FPassing clouds.9 mph37%30.07 "HgN/A
12:30 PM79 °FPassing clouds.8 mph45%30.07 "HgN/A
12:00 PM77 °FPassing clouds.6 mph47%30.07 "HgN/A
11:30 AM75 °FPassing clouds.6 mph54%30.07 "HgN/A
11:00 AM73 °FPassing clouds.8 mph57%30.09 "HgN/A
10:30 AM72 °FPassing clouds.7 mph69%30.09 "HgN/A
10:00 AM68 °FPassing clouds.7 mph78%30.09 "HgN/A
9:30 AM66 °FSunny.7 mph83%30.09 "Hg10 mi
9:00 AM63 °FPassing clouds.5 mph94%30.09 "HgN/A
8:30 AM59 °FPassing clouds.6 mph100%30.09 "HgN/A
8:00 AM59 °FFog.3 mph100%30.09 "Hg2 mi
7:30 AM57 °FFog.2 mph100%30.09 "Hg1 mi
7:00 AM55 °FFog.3 mph100%30.09 "Hg0 mi
6:30 AM55 °FFog.2 mph100%30.09 "Hg0 mi
6:00 AM57 °FFog.2 mph100%30.09 "Hg0 mi
5:30 AM55 °FFog.3 mph100%30.07 "Hg1 mi
5:00 AM55 °FFog.3 mph100%30.07 "Hg1 mi
4:30 AM55 °FFog.5 mph100%30.07 "Hg1 mi
4:00 AM55 °FFog.3 mph100%30.07 "Hg1 mi
3:30 AM55 °FFog.3 mph100%30.07 "Hg1 mi
3:00 AM55 °FFog.5 mph100%30.07 "Hg1 mi
2:30 AM57 °FFog.3 mph94%30.07 "Hg1 mi
2:00 AM59 °FFog.1 mph100%30.07 "Hg1 mi
1:30 AM61 °FFog.3 mph100%30.07 "Hg1 mi
1:00 AM59 °FDense fog.1 mph100%30.07 "Hg1 mi
12:00 AM61 °FClear.3 mph100%30.07 "Hg4 mi
11:30 PM
Sat, Aug 1
63 °FClear.No wind100%30.07 "Hg10 mi
11:00 PM63 °FSunny.1 mph94%30.07 "Hg10 mi
10:30 PM64 °FSunny.5 mph94%30.04 "Hg10 mi
10:00 PM64 °FSunny.3 mph94%30.04 "Hg10 mi
Weather by CustomWeather, © 2015

See weather overviewHow to use our weather pages